• In Netherlands
  • List of Countries
  • For 7 days
  • Water Temperature
  • Satellite Maps
  • Weather Map
  • Weather Widgets
  • user-avatar
    Login

    Hourly Weather Korçe

    Today, 21 May, Monday

    Time Temperature Precipitation Wind Pressure Humidity
    00:00 +12°C° 0.2 mm 2 mps 666 mmHg 85%
    01:00 +12°C° 0 mm 2 mps 666 mmHg 86%
    02:00 +12°C° 0 mm 2 mps 665 mmHg 87%
    03:00 +10°C° 0 mm 2 mps 665 mmHg 88%
    04:00 +10°C° 0 mm 2 mps 665 mmHg 89%
    05:00 +12°C° 0 mm 2 mps 666 mmHg 86%
    06:00 +14°C° 0 mm 2 mps 666 mmHg 84%
    07:00 +15°C° 0 mm 2 mps 666 mmHg 81%
    08:00 +16°C° 0.1 mm 2 mps 667 mmHg 76%
    09:00 +17°C° 0.1 mm 2 mps 667 mmHg 71%
    10:00 +18°C° 0.1 mm 2 mps 667 mmHg 67%
    11:00 +19°C° 0.4 mm 2 mps 667 mmHg 64%
    12:00 +20°C° 0.4 mm 2 mps 667 mmHg 61%
    13:00 +20°C° 0 mm 2 mps 667 mmHg 61%
    14:00 +20°C° 1 mm 2 mps 667 mmHg 62%
    15:00 +20°C° 1 mm 2 mps 667 mmHg 64%
    16:00 +19°C° 1 mm 2 mps 667 mmHg 65%
    17:00 +19°C° 1.2 mm 1 mps 667 mmHg 70%
    18:00 +16°C° 1.2 mm 1 mps 666 mmHg 76%
    19:00 +15°C° 1.2 mm 1 mps 666 mmHg 82%
    20:00 +14°C° 0.9 mm 1 mps 666 mmHg 83%
    21:00 +14°C° 0.9 mm 1 mps 666 mmHg 84%
    22:00 +13°C° 0.9 mm 1 mps 667 mmHg 85%
    23:00 +13°C° 0.2 mm 1 mps 667 mmHg 86%

    Tomorrow, 22 May, Tuesday

    Time Temperature Precipitation Wind Pressure Humidity
    00:00 +13°C° 0.2 mm 1 mps 667 mmHg 86%
    01:00 +12°C° 0.2 mm 1 mps 667 mmHg 87%
    02:00 +12°C° 0 mm 1 mps 667 mmHg 87%
    03:00 +12°C° 0 mm 1 mps 667 mmHg 88%
    04:00 +11°C° 0 mm 1 mps 666 mmHg 88%
    05:00 +13°C° 0 mm 1 mps 667 mmHg 83%
    06:00 +15°C° 0 mm 1 mps 668 mmHg 79%
    07:00 +16°C° 0 mm 1 mps 668 mmHg 75%
    08:00 +19°C° 0.6 mm 1 mps 669 mmHg 70%
    09:00 +19°C° 0.6 mm 2 mps 669 mmHg 64%
    10:00 +20°C° 0.6 mm 2 mps 670 mmHg 59%
    11:00 +21°C° 1.6 mm 2 mps 670 mmHg 59%
    12:00 +21°C° 1.6 mm 2 mps 670 mmHg 59%
    13:00 +21°C° 1.6 mm 2 mps 670 mmHg 59%
    14:00 +21°C° 1.6 mm 2 mps 669 mmHg 60%
    15:00 +21°C° 1.6 mm 1 mps 669 mmHg 61%
    16:00 +21°C° 1.6 mm 1 mps 669 mmHg 63%
    17:00 +19°C° 0.5 mm 1 mps 669 mmHg 68%
    18:00 +18°C° 0.5 mm 1 mps 669 mmHg 74%
    19:00 +14°C° 0.5 mm 0 mps 668 mmHg 79%
    20:00 +15°C° 0.2 mm 1 mps 669 mmHg 80%
    21:00 +14°C° 0.2 mm 1 mps 669 mmHg 80%
    22:00 +14°C° 0.2 mm 1 mps 669 mmHg 81%
    23:00 +13°C° 0 mm 1 mps 669 mmHg 81%

    Day after tomorrow, 23 May, Wednesday

    Time Temperature Precipitation Wind Pressure Humidity
    00:00 +13°C° 0 mm 1 mps 668 mmHg 81%
    01:00 +13°C° 0 mm 1 mps 668 mmHg 81%
    02:00 +12°C° 0 mm 1 mps 668 mmHg 81%
    03:00 +12°C° 0 mm 1 mps 668 mmHg 82%
    04:00 +12°C° 0 mm 1 mps 668 mmHg 82%
    05:00 +13°C° 0.1 mm 1 mps 669 mmHg 81%
    06:00 +14°C° 0.1 mm 1 mps 669 mmHg 79%
    07:00 +15°C° 0.1 mm 1 mps 669 mmHg 78%
    08:00 +16°C° 0.6 mm 1 mps 670 mmHg 76%
    09:00 +18°C° 0.6 mm 1 mps 670 mmHg 74%
    10:00 +17°C° 0.6 mm 2 mps 670 mmHg 72%
    11:00 +18°C° 0.6 mm 2 mps 670 mmHg 67%
    12:00 +19°C° 0.6 mm 2 mps 670 mmHg 62%
    13:00 +20°C° 0.6 mm 2 mps 670 mmHg 57%
    14:00 +19°C° 1.4 mm 2 mps 669 mmHg 64%
    15:00 +18°C° 1.4 mm 2 mps 669 mmHg 70%
    16:00 +17°C° 1.4 mm 2 mps 668 mmHg 76%
    17:00 +16°C° 0.3 mm 1 mps 668 mmHg 78%
    18:00 +15°C° 0.3 mm 1 mps 668 mmHg 80%
    19:00 +14°C° 0.3 mm 1 mps 668 mmHg 82%
    20:00 +13°C° 0.1 mm 1 mps 668 mmHg 83%
    21:00 +13°C° 0.1 mm 1 mps 668 mmHg 83%
    22:00 +12°C° 0.1 mm 1 mps 668 mmHg 84%
    23:00 +12°C° 0.1 mm 1 mps 667 mmHg 84%

    24 May, Thursday

    Time Temperature Precipitation Wind Pressure Humidity
    00:00 +11°C° 0.1 mm 1 mps 667 mmHg 84%
    01:00 +11°C° 0.1 mm 1 mps 667 mmHg 84%
    02:00 +11°C° 0 mm 1 mps 666 mmHg 84%
    03:00 +11°C° 0 mm 1 mps 666 mmHg 84%
    04:00 +10°C° 0 mm 1 mps 666 mmHg 83%
    05:00 +12°C° 0 mm 1 mps 666 mmHg 79%
    06:00 +14°C° 0 mm 1 mps 667 mmHg 75%
    07:00 +16°C° 0 mm 1 mps 667 mmHg 71%
    08:00 +18°C° 0.2 mm 1 mps 668 mmHg 67%
    09:00 +19°C° 0.2 mm 1 mps 668 mmHg 62%
    10:00 +19°C° 0.2 mm 2 mps 668 mmHg 58%
    11:00 +20°C° 0.5 mm 2 mps 668 mmHg 58%
    12:00 +20°C° 0.5 mm 2 mps 668 mmHg 58%
    13:00 +20°C° 0.5 mm 2 mps 667 mmHg 58%
    14:00 +20°C° 0.7 mm 2 mps 667 mmHg 61%
    15:00 +19°C° 0.7 mm 2 mps 667 mmHg 64%
    16:00 +19°C° 0.7 mm 2 mps 666 mmHg 67%
    17:00 +17°C° 0.5 mm 2 mps 666 mmHg 74%
    18:00 +16°C° 0.5 mm 2 mps 666 mmHg 81%
    19:00 +14°C° 0.5 mm 2 mps 666 mmHg 87%
    20:00 +14°C° 0.2 mm 2 mps 666 mmHg 88%
    21:00 +13°C° 0.2 mm 1 mps 666 mmHg 89%
    22:00 +13°C° 0.2 mm 1 mps 666 mmHg 90%
    23:00 +13°C° 0 mm 1 mps 665 mmHg 90%

    25 May, Friday

    Time Temperature Precipitation Wind Pressure Humidity
    00:00 +12°C° 0 mm 1 mps 665 mmHg 89%
    01:00 +12°C° 0 mm 1 mps 665 mmHg 89%
    02:00 +12°C° 0 mm 1 mps 665 mmHg 88%
    03:00 +10°C° 0 mm 2 mps 665 mmHg 88%
    04:00 +10°C° 0 mm 2 mps 665 mmHg 87%
    05:00 +13°C° 0 mm 2 mps 666 mmHg 83%
    06:00 +14°C° 0 mm 2 mps 666 mmHg 79%
    07:00 +16°C° 0 mm 2 mps 667 mmHg 76%
    08:00 +17°C° 0 mm 2 mps 667 mmHg 70%
    09:00 +19°C° 0 mm 2 mps 667 mmHg 64%
    10:00 +20°C° 0 mm 2 mps 668 mmHg 58%
    11:00 +21°C° 0.2 mm 2 mps 668 mmHg 58%
    12:00 +21°C° 0.2 mm 2 mps 668 mmHg 57%
    13:00 +21°C° 0.2 mm 2 mps 667 mmHg 56%
    14:00 +21°C° 0.4 mm 2 mps 667 mmHg 57%
    15:00 +21°C° 0.4 mm 2 mps 667 mmHg 58%
    16:00 +21°C° 0.4 mm 2 mps 667 mmHg 60%
    17:00 +19°C° 0.2 mm 2 mps 667 mmHg 65%
    18:00 +17°C° 0.2 mm 2 mps 666 mmHg 70%
    19:00 +16°C° 0.2 mm 1 mps 666 mmHg 75%
    20:00 +15°C° 0 mm 2 mps 666 mmHg 76%
    21:00 +14°C° 0 mm 2 mps 666 mmHg 78%
    22:00 +13°C° 0 mm 2 mps 666 mmHg 79%
    23:00 +13°C° 0 mm 2 mps 666 mmHg 79%

    26 May, Saturday

    Time Temperature Precipitation Wind Pressure Humidity
    00:00 +13°C° 0 mm 2 mps 666 mmHg 80%
    01:00 +12°C° 0 mm 2 mps 666 mmHg 80%
    02:00 +12°C° 0 mm 2 mps 666 mmHg 81%
    03:00 +12°C° 0 mm 2 mps 666 mmHg 82%
    04:00 +12°C° 0 mm 2 mps 666 mmHg 83%
    05:00 +13°C° 0 mm 2 mps 666 mmHg 79%
    06:00 +15°C° 0 mm 2 mps 667 mmHg 75%
    07:00 +17°C° 0 mm 2 mps 668 mmHg 71%
    08:00 +18°C° 0 mm 2 mps 668 mmHg 64%
    09:00 +20°C° 0 mm 2 mps 668 mmHg 58%
    10:00 +21°C° 0 mm 3 mps 669 mmHg 51%
    11:00 +21°C° 0.2 mm 3 mps 669 mmHg 51%
    12:00 +22°C° 0.2 mm 3 mps 669 mmHg 52%
    13:00 +22°C° 0.2 mm 3 mps 669 mmHg 52%
    14:00 +22°C° 0.5 mm 3 mps 669 mmHg 55%
    15:00 +21°C° 0.5 mm 2 mps 668 mmHg 57%
    16:00 +21°C° 0.5 mm 2 mps 668 mmHg 60%
    17:00 +19°C° 0.3 mm 2 mps 668 mmHg 66%
    18:00 +18°C° 0.3 mm 2 mps 668 mmHg 71%
    19:00 +16°C° 0.3 mm 2 mps 668 mmHg 77%
    20:00 +15°C° 0.1 mm 2 mps 668 mmHg 79%
    21:00 +15°C° 0.1 mm 2 mps 668 mmHg 80%
    22:00 +14°C° 0.1 mm 2 mps 668 mmHg 82%
    23:00 +14°C° 0 mm 2 mps 668 mmHg 83%
    Show more